Location: Unspecified
(49.2170°N, 0.0000°E)
Time: 14:52:18
(UTC+00:00)

Transit 2A - Pass Details

Date: 19 June 2019
Orbit: 594 x 965 km, 66.7° (Epoch: 16 July)

Event Time Altitude Azimuth Distance (km) Brightness Sun altitude
Rises 09:06:55 0° 324° (NW) 3,516 9.1 47.3°
Reaches altitude 10° 09:09:33 10° 326° (NNW) 2,522 8.4 47.7°
Maximum altitude 09:15:22 71° 51° (NE) 853 7.3 48.6°
Drops below altitude 10° 09:20:33 10° 136° (SE) 2,256 9.3 49.4°
Sets 09:22:48 0° 138° (SE) 3,119 9.7 49.7°
